DELTA 1 DEB, 7044

Orbit data source: Space-Track

DELTA 1 DEB, 7044 is space debris in SSO originally from a launch on Tue, 06 Nov 1973 UTC launched from the Air Force Western Test Range (AFWTR). Debris objects in space refer to the collection of defunct objects orbiting the Earth. Examples of debris include non-operational satellites, rocket bodies, and fragments generated from explosions, collisions, or faulty payload assembly.

Loading next visibility...
Identifier
7044, 1973-086AL
Orbit
SSO
Country
Flag of USUS
Related business
Manufacturer
Unknown
Mission
Spacecraft
Bus & Motor
Unknown
Mass
Unknown
Launch date (UTC)
1973-11-06 (52 years ago)
Launch vehicle
Unknown
Launch site
Air Force Western Test Range (AFWTR)
Object type
Payload
Rocket body
Debris
Shape & HBR
Unknown shape, 0.2 m
Radar Cross Section
Medium (>0.1 m² and <1 m²)

Expand to show TLE details & history
Last TLE update: 2 days ago

TLE from 2 days ago
0 DELTA 1 DEB
1  7044U 73086AL  25306.34698044 -.00000015  00000-0  23336-3 0  9990
2  7044 102.5267 165.8017 0089844 307.8497 227.0738 12.44521090361040
Epoch: 2025-11-02T08:19Z
TLE epoch observation values (Epoch: 2025-11-02T08:19:39.110Z)
Latitude
5.61346°
Longitude
-179.73004°
Altitude
1,537.952 km
Speed
7.076 km/s
True Right ascension
23h 08m 11s
True Declination
5° 35' 00"
Sunlit
Object was in full shadow at epoch
Visualization orbit readout
Latitude
Unknown
Longitude
Unknown
Altitude
Unknown
Speed
Unknown
Apparent Right ascension
Unknown
Apparent Declination
Unknown
Sunlit
N/A
Visualization observer readout
Local Sidereal Time
19:30:30
Azimuth
Unknown
Elevation
Unknown
Doppler factor
Unknown
Orbital elements
Apogee altitude
1,555.743 km
Perigee altitude
1,414.45 km
Semi-major axis
7,863.233 km
Eccentricity
0.00898
Inclination
102.5267°
RAAN
165.8017°
Arg. of periapsis
307.8497°
True anomaly
226.32569°
Mean anomaly
227.0738°
Eccentric anomaly
226.69917°
Mean motion
3.11273 °/min
Orbital period
115.65 mins
BSTAR
0.00023336
Loading maneuver chart data...
Computing Atmospheric mass density...
Loading historical data...
Loading historical data...
Loading historical data...
Loading historical data...
Loading historical data...
Loading historical data...
Loading historical data...

Documentation

Showing up to 5 results
|